Hourly Data Report for July 18, 2021

HALIFAX STANFIELD INT'L A
NOVA SCOTIA
Current Station Operator: NAVCAN

44°52'52.000" N
63°30'31.000" W
145.40 m
8202251
71395
YHZ

Download Data

Hourly Data (July 2021)
Hourly Data Report for July 18, 2021
TIME
LST
Temp Definition
°C
Dew Point Definition
°C
Rel Hum Definition
%
Precip. Amount Definition
mm

Wind Dir Definition
10's deg

Wind Spd Definition
km/h
Visibility Definition
km
Stn Press Definition
kPa
Hmdx Definition


Wind Chill Definition


Weather Definition


00:00 19.1 17.4 90   1 7 24.1 100.17     LegendNANA
01:00 18.7 15.8 83   36 6 24.1 100.18     LegendNANA
02:00 19.3 15.0 76   36 5 24.1 100.17     Cloudy
03:00 20.0 14.1 68   36 3 24.1 100.18     LegendNANA
04:00 19.7 15.0 74   32 7 24.1 100.16     LegendNANA
05:00 19.4 14.9 75   32 6 24.1 100.17     Cloudy
06:00 19.9 14.5 71   32 4 24.1 100.21     LegendNANA
07:00 20.9 15.0 69   35 7 24.1 100.26 25   LegendNANA
08:00 21.1 15.9 72   35 8 24.1 100.25 26   Mostly Cloudy
09:00 22.4 16.9 71   1 5 24.1 100.24 28   LegendNANA
10:00 24.8 17.5 64   2 5 24.1 100.26 30   LegendNANA
11:00 25.4 16.9 59   36 5 24.1 100.23 31   Mostly Cloudy
12:00 25.9 16.0 54   2 3 24.1 100.20 31   LegendNANA
13:00 27.3 14.7 46   1 5 24.1 100.18 31   LegendNANA
14:00 28.0 17.6 53   17 13 24.1 100.15 34   Mostly Cloudy
15:00 27.9 16.7 50   20 17 24.1 100.13 33   LegendNANA
16:00 25.6 16.3 56   17 12 24.1 100.12 30   LegendNANA
17:00 23.8 16.4 63   17 7 24.1 100.13 29   Rain
18:00 21.4 18.4 83   17 11 24.1 100.11 28   Rain
19:00 20.2 19.2 94   16 10 24.1 100.14 27   Rain
20:00 20.1 19.8 98   13 4 4.8 100.12 28   Rain, Fog
21:00 19.4 19.1 98   18 14 9.7 100.18     Rain, Fog
22:00 17.9 16.9 94   13 15 9.7 100.11     Rain, Fog
23:00 17.2 16.2 94   10 18 24.1 100.03     Cloudy

Notes on Data Quality.

Legend

  • E = Estimated
  • M = Missing
  • NA = Not Available*
  • [empty] = Indicates an unobserved value
Date modified: